Miscellaneous Local Product
Issued by NWS North Platte, NE

Home | Current Version | Previous Version | Graphics & Text | Print | Product List | Glossary On
Versions: 1 2 3 4 5 6 7 8 9 10 11 12 13 14 15 16 17 18 19 20 21 22 23 24 25 26 27 28 29 30 31 32 33 34 35 36 37 38 39 40 41 42 43 44 45 46 47 48 49 50
000
AXUS43 KLBF 020610
MISLBF


WESTERN AND NORTH CENTRAL NEBRASKA HOURLY WEATHER ROUNDUP
NATIONAL WEATHER SERVICE NORTH PLATTE NE
100 AM CDT WED SEP 02 2015

NOTE: "FAIR" INDICATES FEW OR NO CLOUDS BELOW 12,000 FEET WITH NO
SIGNIFICANT WEATHER AND/OR OBSTRUCTIONS TO VISIBILITY.

NOTE: STATIONS NOT REPORTING VARIABLES SUCH AS SKY/WEATHER OR
PRESSURE ARE PROVIDED BY THE NEBRASKA DEPARTMENT OF
ROADS...RAWS...AND APRS NETWORKS...AND ARE NOT UNDER
NATIONAL WEATHER SERVICE QUALITY CONTROL.

...OBSERVATIONS IN AND NEAR THE EASTERN PANHANDLE OF NEBRASKA...

CITY           SKY/WX    TMP DP  RH WIND       PRES   REMARKS
PINE RIDGE     CLEAR     55  46  71 CALM      29.89F
CHADRON        PTCLDY    58  45  62 W6        29.89S
ALLIANCE       CLEAR     65  48  54 S9        29.93F
SIDNEY         CLEAR     69  41  36 SW10      30.01R
CRESCENT LAKE    N/A     67  49  53 S6          N/A
BIG SPRINGS      N/A     70  58  66 S10         N/A
$$

...OBSERVATIONS IN NORTH CENTRAL NEBRASKA...

CITY           SKY/WX    TMP DP  RH WIND       PRES   REMARKS
VALENTINE      CLEAR     75  61  61 S15       29.86S
THEDFORD       CLEAR     70  63  78 S10       29.91S
O`NEILL        CLEAR     71  67  85 S7        29.87F
ORD            CLEAR     67  64  90 CALM      29.87F
BROKEN BOW     CLEAR     65  62  90 CALM      29.90F
SPRINGVIEW       N/A     65  62  91 CALM        N/A
SARGENT          N/A     68  64  85 CALM        N/A
CHAMBERS         N/A     69  64  84 S3          N/A
EWING            N/A     70  64  81 CALM        N/A
$$

...OBSERVATIONS IN SOUTHWEST NEBRASKA AND FAR NORTHEAST COLORADO...

CITY           SKY/WX    TMP DP  RH WIND       PRES   REMARKS
WRAY           CLOUDY    71  58  62 SW7       29.98S
HOLYOKE        FAIR      66  59  77 SW5       29.98S
IMPERIAL       CLEAR     70  56  61 SW5       29.95S
OGALLALA       CLEAR     70  55  59 SW6       29.94S
NORTH PLATTE   CLEAR     64  61  90 E5        29.91S
MCCOOK         CLEAR     72  57  59 SW3       29.91S
LEXINGTON      CLEAR     68  64  88 E3        29.90F
PAXTON           N/A     66  59  79 S3          N/A
BRADY            N/A     66  62  87 CALM        N/A
CALLAWAY         N/A     63  62  95 SE5         N/A
$$

...OBSERVATIONS IN CENTRAL LINCOLN COUNTY AREA...

CITY           SKY/WX    TMP DP  RH WIND       PRES   REMARKS
N.P. AIRPORT   CLEAR     64  61  90 E5        29.91S
N.P. DOWNTOWN    N/A     73  62  68 CALM        N/A
N.P. SOUTHEAST   N/A     73  61  67 CALM        N/A
N.P. HILLCREST   N/A     71  62  74 SE5         N/A
$$

...SOME OBSERVATIONS FROM AROUND THE REGION...

CITY           SKY/WX    TMP DP  RH WIND       PRES   REMARKS
DENVER         MOCLDY    69  46  43 SW9       30.09F
LARAMIE        MOCLDY    51  40  65 SE8       30.21F
CHEYENNE       PTCLDY    62  40  44 W9        30.12S
SCOTTSBLUFF    CLEAR     63  49  60 W5        29.94S
RAPID CITY     CLEAR     62  53  72 NW7       29.87F
PIERRE         CLEAR     71  68  90 SE10      29.77F
WINNER           N/A     77  62  59 S14       29.81S
SIOUX FALLS    FAIR      74  70  87 S8        29.85F
OMAHA          FAIR      78  67  68 S16       29.91F
GRAND ISLAND   FAIR      74  64  71 S12       29.90F
KANSAS CITY    FAIR      73  65  75 S9        30.01S
WICHITA        MOCLDY    78  65  63 S13       29.99S
HAYS           FAIR      81  55  41 S12       29.94S
LIBERAL        FAIR      77  54  44 S14       30.02R
GOODLAND       PTCLDY    72  57  59 S6        29.99S
$$



USA.gov is the U.S. government's official web portal to all federal, state and local government web resources and services.